Home   Weather   Poznan   Past weeks

Flag for Poland Past Weather in Poznan, Poland — Yesterday and Last 2 Weeks

Now
48 °F

Sunny.


Feels Like: 44 °F
Forecast: 39 / 51 °F
Wind: 9 mph from Southwest

Location: Poznan Airport

Current Time: Apr 25, 2017 at 9:00:28 am

Latest Report: Apr 25, 2017 at 8:00 am


Visibility: 10 mi

Pressure: 29.59 "Hg

Humidity: 62%

Dew Point: 36 °F

Location of PoznanLocation

Past Weather in Poznan — Graph

°F

Poznan Temperature Yesterday

Maximum temperature yesterday: 55 °F (at 5:00 pm)
Minimum temperature yesterday: 32 °F (at 5:00 am)
Average temperature yesterday: 44 °F

High & Low Weather Summary for the Past Weeks

 TemperatureHumidityPressure
High73 °F (Apr 10, 2:30 pm)100% (Apr 12, 7:00 am)30.54 "Hg (Apr 12, 7:00 am)
Low28 °F (Apr 19, 5:30 am)29% (Apr 10, 3:30 pm)29.59 "Hg (Apr 25, 6:30 am)
Average44 °F70%30.00 "Hg
* Reported Apr 10 8:00 am — Apr 25 8:00 am, Poznan, Weather by CustomWeather, © 2017

Note: Actual official high and low records may vary slightly from our data, if they occured in-between our weather recording intervals... More about our weather records

Advertising

Poznan Weather History for the Previous 24 Hours

Scroll right to see more
 ConditionsComfort  
Time TempWeatherWind HumidityBarometerVisibility
8:00 am
Tue, Apr 25
48 °FSunny.9 mph62%29.59 "Hg10 mi
7:30 am46 °FSunny.10 mph66%29.59 "Hg10 mi
7:00 am45 °FSunny.8 mph71%29.59 "Hg10 mi
6:30 am45 °FSunny.8 mph71%29.59 "Hg10 mi
6:00 am45 °FSunny.9 mph66%29.62 "Hg10 mi
5:30 am45 °FClear.9 mph66%29.62 "Hg10 mi
5:00 am45 °FClear.10 mph66%29.62 "Hg10 mi
4:30 am45 °FClear.8 mph66%29.62 "Hg10 mi
4:00 am46 °FClear.7 mph66%29.65 "Hg10 mi
3:00 am45 °FClear.8 mph71%29.68 "Hg10 mi
2:30 am45 °FClear.8 mph71%29.68 "Hg10 mi
2:00 am46 °FClear.8 mph66%29.71 "Hg10 mi
1:30 am45 °FClear.8 mph71%29.71 "Hg10 mi
1:00 am45 °FClear.7 mph71%29.71 "Hg10 mi
12:30 am45 °FClear.6 mph66%29.74 "Hg10 mi
12:00 am45 °FClear.3 mph66%29.74 "Hg10 mi
11:30 pm
Mon, Apr 24
46 °FClear.10 mph62%29.74 "Hg10 mi
11:00 pm48 °FClear.10 mph54%29.74 "Hg10 mi
10:00 pm48 °FClear.8 mph58%29.80 "Hg10 mi
9:30 pm48 °FClear.5 mph58%29.80 "Hg10 mi
9:00 pm50 °FClear.3 mph50%29.83 "Hg10 mi
8:30 pm50 °FClear.3 mph50%29.83 "Hg10 mi
8:00 pm52 °FSunny.5 mph44%29.83 "Hg10 mi
7:30 pm52 °FSunny.8 mph44%29.83 "Hg10 mi
7:00 pm54 °FSunny.10 mph38%29.83 "Hg10 mi
6:30 pm54 °FSunny.15 mph38%29.83 "Hg10 mi
6:00 pm54 °FSunny.9 mph41%29.83 "Hg10 mi
5:30 pm54 °FSunny.15 mph38%29.86 "Hg10 mi
5:00 pm55 °FSunny.15 mph36%29.86 "Hg10 mi
4:30 pm54 °FSunny.17 mph38%29.89 "Hg10 mi
4:00 pm54 °FSunny.17 mph38%29.89 "Hg10 mi
3:30 pm52 °FPassing clouds.15 mph44%29.92 "HgN/A
3:00 pm52 °FScattered clouds.14 mph44%29.92 "HgN/A
2:00 pm48 °FScattered clouds.10 mph50%29.98 "HgN/A
1:30 pm48 °FScattered clouds.12 mph50%29.98 "HgN/A
1:00 pm48 °FScattered clouds.12 mph54%29.98 "HgN/A
12:30 pm46 °FScattered clouds.10 mph53%30.01 "HgN/A
12:00 pm46 °FScattered clouds.10 mph53%30.01 "HgN/A
11:30 am45 °FPartly sunny.12 mph57%30.04 "HgN/A
11:00 am46 °FPartly sunny.12 mph57%30.04 "HgN/A
10:30 am45 °FPartly sunny.14 mph61%30.04 "HgN/A
10:00 am45 °FPartly sunny.12 mph61%30.04 "HgN/A
9:30 am41 °FScattered clouds.9 mph76%30.04 "HgN/A
9:00 am41 °FPassing clouds.8 mph76%30.04 "HgN/A
Weather by CustomWeather, © 2017

See weather overviewHow to use our weather pages